Flag for Germany Weather past 2 weeks in Lahr, Baden-Württemberg, Germany

Now
73 °F

Partly sunny.


Feels Like: 75 °F
Forecast: 58 / 77 °F
Wind: 3 mph from Northeast

Location: Lahr

Current Time: Sep 17, 2014 at 3:49:19 PM

Latest Report: Sep 17, 2014 at 3:00 PM


Visibility: 17 mi

Pressure: 29.85 "Hg

Humidity: 68%

Dew point: 62 °F

Location of LahrLocation

Historic Weather in Lahr — Graph

°F

Lahr temperature yesterday

Maximum temperature yesterday: 74 °F (at 4:00 PM)
Minimum temperature yesterday: 53 °F (at 6:00 AM)
Average temperature yesterday: 62 °F

Past Weeks' High & Low Weather Summary

 TemperatureHumidityPressure
High78 °F (Sep 8, 5:00 PM)100% (Sep 3, 5:00 AM)30.16 "Hg (Sep 3, 5:00 AM)
Low48 °F (Sep 11, 7:00 AM)54% (Sep 7, 4:00 PM)29.86 "Hg (Sep 6, 5:00 PM)
Average62 °F86%30.01 "Hg
* Reported Sep 2 2:00 PM — Sep 17 2:00 PM, Lahr, Weather by CustomWeather, © 2014

Note: Actual official high and low records may vary slightly from our data, if they occured in-between our weather recording intervals... More about our weather records

Advertising

Lahr weather history for previous 24 hours

 ConditionsComfort  
Time TempWeatherWind HumidityBarometerVisibility
2:00 PM
Sep 17
70 °FPartly sunny.2 mph76%29.87 "Hg7 mi
1:00 PM67 °FScattered clouds.1 mph78%29.90 "Hg5 mi
12:00 PM62 °FFog.1 mph89%29.91 "Hg2 mi
11:00 AM59 °FFog.1 mph95%29.92 "Hg1 mi
10:00 AM57 °FFog.1 mph98%29.92 "Hg0 mi
9:00 AM56 °FFog.2 mph99%29.93 "Hg0 mi
8:00 AM55 °FFog.1 mph99%29.92 "Hg0 mi
7:00 AM55 °FFog.1 mph99%29.92 "Hg0 mi
6:00 AM55 °FFog.1 mph99%29.93 "Hg1 mi
5:00 AM55 °FClear.1 mph99%29.92 "Hg1 mi
4:00 AM55 °FClear.1 mph98%29.92 "Hg3 mi
3:00 AM56 °FClear.1 mph95%29.92 "Hg6 mi
2:00 AM58 °FFog.1 mph98%29.92 "Hg3 mi
1:00 AM58 °FFog.1 mph96%29.91 "Hg2 mi
12:00 AM59 °FClear.1 mph95%29.93 "Hg6 mi
11:00 PM
Sep 16
60 °FClear.1 mph97%29.92 "Hg5 mi
10:00 PM61 °FClear.1 mph94%29.93 "Hg9 mi
9:00 PM64 °FPassing clouds.1 mph90%29.92 "Hg16 mi
8:00 PM67 °FPassing clouds.1 mph82%29.91 "Hg22 mi
7:00 PM71 °FPassing clouds.3 mph72%29.91 "Hg22 mi
6:00 PM74 °FPassing clouds.3 mph60%29.91 "Hg19 mi
5:00 PM74 °FPassing clouds.3 mph62%29.91 "Hg19 mi
4:00 PM74 °FPassing clouds.3 mph64%29.92 "Hg19 mi
3:00 PM73 °FPassing clouds.2 mph68%29.94 "Hg16 mi
Weather by CustomWeather, © 2014

See weather overviewHow to use our weather pages